Tracking 19717 objects as of 25-Jun-2019
HD Live streaming from Space Station
objects crossing your sky now

DELTA 1 DEB

Track DELTA 1 DEB now!
10-day predictions


NORAD ID: 13573
Int'l Code: 1978-026FL
Perigee: 887.9 km
Apogee: 994.6 km
Inclination: 99.0 °
Period: 103.7 minutes
Semi major axis: 7312 km
RCS: 0.0137 m2 (small)
Launch date: March 5, 1978
Source: United States (US)
Launch site: AIR FORCE WESTERN TEST RANGE (AFWTR)

Note: This is SATELLITE DEBRIS
aabbcc
Your satellite tracking list
Your tracking list is empty




NASA's NSSDC Master Catalog

Two Line Element Set (TLE):
1 13573U 78026FL  19175.32291161 -.00000011 +00000-0 +25626-4 0  9998
2 13573 099.0189 095.8728 0072994 358.5806 123.6666 13.88440846929446
Source of the keplerian elements: AFSPC